Weather History for Pasco, WA

Change the Weather History Date:

Saturday, February 1, 2014

  Actual Average Record
Temperature  
Mean Temperature 30 °F 37 °F  
Max Temperature 35 °F 45 °F 59 °F (2003)
Min Temperature 24 °F 29 °F -12 °F (1996)
Degree Days  
Heating Degree Days 35 28  
Month to date heating degree days 35 28  
Since 1 July heating degree days 3445 3179  
Cooling Degree Days 0 0  
Month to date cooling degree days 0 0  
Year to date cooling degree days 0 0  
Moisture  
Dew Point 24 °F    
Average Humidity 79    
Maximum Humidity 92    
Minimum Humidity 66    
Precipitation  
Precipitation 0.00 in - 0.40 in (1997)
Month to date precipitation 0.00  
Year to date precipitation 0.36  
Snow  
Snow 0.00 in - - ()
Snow Depth 0.00 in    
Sea Level Pressure  
Sea Level Pressure 30.20 in    
Wind  
Wind Speed 4 mph (NW)    
Max Wind Speed 8 mph    
Max Gust Speed 10 mph    
Visibility 10 miles    
Events      
T = Trace of Precipitation, MM = Missing Value Source: NWS Daily Summary

Daily Weather History Graph

Daily Weather History Graph

Search for Another Location

Airport:

Trip Planner

Search our weather history database for the weather conditions in past years. The results will help you decide how hot, cold, wet, or windy it might be!

Date:

Astronomy

Feb. 01, 2014 Rise Set
Actual Time 7:19 AM PST 5:01 PM PST
Civil Twilight 6:47 AM PST 5:33 PM PST
Nautical Twilight 6:11 AM PST 6:09 PM PST
Astronomical Twilight 5:36 AM PST 6:44 PM PST
Moon 8:01 AM PST (2/1) 7:54 PM PST (2/1)
Length of Visible Light 10h 46m
Length of Day
9h 42m
Waxing Crescent, 5% of the Moon is Illuminated
Feb 1
Waxing Crescent
Feb 6
First Quarter
Feb 14
Full
Feb 22
Last Quarter
Mar 1
New

Hourly Weather History & Observations

Time (PST) Temp. Windchill Dew Point Humidity Pressure Visibility Wind Dir Wind Speed Gust Speed Precip Events Conditions
12:53 AM 30.9 °F 27.5 °F 28.0 °F 89% 30.18 in 10.0 mi West 3.5 mph - N/A   Overcast
1:53 AM 30.0 °F 25.2 °F 28.0 °F 92% 30.19 in 10.0 mi NNE 4.6 mph - N/A   Overcast
2:53 AM 30.0 °F 25.2 °F 24.1 °F 79% 30.20 in 10.0 mi North 4.6 mph - N/A   Overcast
3:51 AM 28.4 °F 24.6 °F 24.8 °F 86% 30.20 in 10.0 mi NNW 3.5 mph - N/A   Overcast
3:53 AM 28.9 °F - 24.1 °F 82% 30.21 in 10.0 mi Calm Calm - N/A   Overcast
4:53 AM 28.9 °F 23.9 °F 23.0 °F 78% 30.22 in 10.0 mi North 4.6 mph - N/A   Overcast
5:16 AM 28.9 °F 23.9 °F 21.9 °F 75% 30.21 in 10.0 mi NNW 4.6 mph - N/A   Overcast
5:53 AM 28.9 °F - 23.0 °F 78% 30.23 in 10.0 mi Calm Calm - N/A   Overcast
6:53 AM 28.0 °F 21.7 °F 21.9 °F 78% 30.24 in 10.0 mi NNW 5.8 mph - N/A   Overcast
7:53 AM 28.0 °F 22.8 °F 21.9 °F 78% 30.24 in 10.0 mi NNW 4.6 mph - N/A   Overcast
8:53 AM 28.9 °F 21.9 °F 23.0 °F 78% 30.25 in 10.0 mi NNW 6.9 mph - N/A   Overcast
9:53 AM 30.9 °F 25.2 °F 21.9 °F 69% 30.26 in 10.0 mi North 5.8 mph - N/A   Overcast
10:53 AM 30.9 °F 26.2 °F 23.0 °F 72% 30.26 in 10.0 mi NNW 4.6 mph - N/A   Overcast
11:53 AM 32.0 °F 26.4 °F 23.0 °F 69% 30.24 in 10.0 mi NNW 5.8 mph - N/A   Overcast
12:53 PM 33.1 °F 27.7 °F 24.1 °F 70% 30.22 in 10.0 mi NW 5.8 mph - N/A   Overcast
1:53 PM 34.0 °F 28.0 °F 25.0 °F 70% 30.21 in 10.0 mi NNW 6.9 mph - N/A   Overcast
2:53 PM 34.0 °F 29.8 °F 24.1 °F 67% 30.21 in 10.0 mi NNW 4.6 mph - N/A   Overcast
3:53 PM 35.1 °F 29.3 °F 26.1 °F 70% 30.20 in 10.0 mi North 6.9 mph - N/A   Mostly Cloudy
4:53 PM 33.1 °F 27.7 °F 26.1 °F 75% 30.19 in 10.0 mi NNW 5.8 mph - N/A   Overcast
5:53 PM 28.9 °F 23.9 °F 25.0 °F 85% 30.18 in 10.0 mi WNW 4.6 mph - N/A   Overcast
6:53 PM 28.9 °F 21.9 °F 26.1 °F 89% 30.17 in 10.0 mi NW 6.9 mph - N/A   Overcast
7:11 PM 28.9 °F 21.9 °F 25.0 °F 85% 30.15 in 10.0 mi NW 6.9 mph - N/A   Scattered Clouds
7:53 PM 27.0 °F 20.5 °F 23.0 °F 85% 30.17 in 10.0 mi NW 5.8 mph - N/A   Clear
8:53 PM 26.1 °F 19.4 °F 23.0 °F 88% 30.17 in 10.0 mi WNW 5.8 mph - N/A   Clear
9:53 PM 25.0 °F 20.7 °F 21.9 °F 88% 30.17 in 10.0 mi NW 3.5 mph - N/A   Clear
10:33 PM 25.0 °F 20.7 °F 23.0 °F 92% 30.15 in 10.0 mi WSW 3.5 mph - N/A   Mostly Cloudy
10:53 PM 26.1 °F 20.5 °F 24.1 °F 92% 30.17 in 10.0 mi SW 4.6 mph - N/A   Overcast
11:53 PM 28.0 °F 24.2 °F 24.1 °F 85% 30.17 in 10.0 mi WSW 3.5 mph - N/A   Overcast